Volver al catálogo

COSMOS 1823 DEB

ActivoLEO
NORAD 39823·DEBRIS·🇷🇺 Russia

Lanzado Feb 20, 1987 desde Plesetsk Cosmodrome

Loading…

Próximos Pases (próximas 24 horas)

TLE

EnvejeciendoSource: Space-Track

Época: Sep 12, 2026, 08:17 UTC

1 39823U 87020EX  26255.34532376  .00000197  00000-0  14868-2 0  9991
2 39823  73.7101  18.7480 0043646 259.9502 130.3771 12.45559245 38026

Sigue COSMOS 1823 DEB en tiempo real con AllMySat

Download on the App Store